Location: Casteau
(50.5142°N, 4.0161°E)
Time: 02:09:23
(UTC+00:00)

S-56A Canister/Altair - Pass Details

Date: 08 August 2021
Orbit: 632 x 2500 km, 38.9° (Epoch: 16 September)

Event Time Altitude Azimuth Distance (km) Brightness Sun altitude
Rises 15:21:57 0° 261° (W) 5,351 12.8 35.4°
Reaches altitude 10° 15:25:16 10° 256° (WSW) 4,559 12.9 34.9°
Maximum altitude 15:37:50 51° 187° (S) 2,904 11.1 33.0°
Drops below altitude 10° 15:52:01 10° 119° (ESE) 5,099 11.4 30.8°
Sets 15:55:58 0° 114° (ESE) 6,009 11.7 30.2°
